[[{"header":{"parameterUnit":"m.s-1","parameterCategory":1,"la1":30.2991,"la2":30.254,"lo1":-89.0895,"lo2":-89.0444,"dy":0.0017,"dx":0.0017,"nx":28,"ny":28,"refTime":"2025-12-11T09:00:00:Z","depth":0,"parameterNumber":2,"parameterNumberName":"U-component_of_WINDS"},"data":[0,0,0,0,0,0,0,0,0,0,0,0,0,0,0,0,0,0,0,0,0,0,0,0,0,0,0,0,0,0,0,0,0,0,0,0,0,0,0,0,0,0,0,0,0,0,0,0,0,0,0,0,0,0,0,0,0,0,0.2578,0.2579,0,0.2699,0.2701,0.2702,0.2762,0.2762,0.2762,0.2762,0.2892,0.2896,0.2899,0,0,0,0,0,0,0,0,0,0,0,0,0,0.2404,0.2407,0.2578,0.2579,0.2581,0.2699,0.2701,0.2703,0.2762,0.2762,0.2762,0.2762,0.2891,0.2895,0.2899,0,0,0,0,0,0,0,0,0,0,0,0,0,0.2498,0.2408,0.2578,0.2624,0.263,0.2699,0.2701,0.2703,0.2762,0.2762,0.2762,0.2762,0.289,0.2895,0.29,0.2933,0,0,0.2916,0.2918,0,0,0,0,0,0,0,0,0.2493,0.2504,0.2616,0.2621,0.2628,0.2715,0.2688,0.2781,0.2762,0.2712,0.2762,0.2762,0.2834,0.2844,0.2867,0.294,0.2945,0.2917,0.292,0.2922,0.2924,0,0,0,0,0,0,0,0.2486,0.25,0.2626,0.2618,0.2625,0.2642,0.2655,0.2706,0.2772,0.2716,0.2721,0.2734,0.2837,0.2862,0.287,0.2947,0.2916,0.2921,0.2924,0.2926,0.3057,0.3057,0,0,0,0,0,0,0.2471,0.2494,0.2622,0.263,0.2558,0.2645,0.266,0.2687,0.2771,0.2784,0.2734,0.2736,0.2853,0.2864,0.2875,0.2922,0.2922,0.2927,0.293,0.3057,0.3057,0.3057,0,0,0,0,0,0,0.2467,0.2482,0.2617,0.2563,0.2582,0.2648,0.2678,0.269,0.2714,0.2785,0.2798,0.2746,0.2853,0.2868,0.2919,0.2927,0.2929,0.2934,0.3056,0.3057,0.3057,0.3014,0,0,0,0,0,0,0.2462,0.248,0.2492,0.2563,0.2584,0.2657,0.2679,0.2692,0.2722,0.2727,0.28,0.2812,0.2854,0.2911,0.2924,0.2934,0.2938,0.3056,0.3057,0.3057,0.3015,0.3013,0.3011,0,0,0,0,0,0.2455,0.2475,0.2492,0.2507,0.26,0.2657,0.2669,0.2716,0.2723,0.2736,0.2782,0.281,0.2924,0.2915,0.2931,0.2943,0.3056,0.3056,0.3057,0.3016,0.3013,0.3011,0,0,0,0,0,0,0.2405,0.2485,0.2505,0.2548,0.2595,0.2667,0.2685,0.2711,0.2759,0.2761,0.2819,0.2835,0.2881,0.2917,0.2906,0.2982,0.2993,0.2996,0.2956,0.2954,0.2952,0.2943,0.2943,0,0,0,0,0,0.2398,0.2436,0.2505,0.2537,0.2559,0.2618,0.2645,0.2676,0.2728,0.2749,0.2798,0.285,0.2898,0.2928,0.2975,0.302,0.3039,0.3037,0.3035,0.3033,0.3036,0.3065,0.3066,0.306,0.306,0.306,0,0,0.2386,0.2435,0.2455,0.2528,0.2568,0.2608,0.2634,0.2675,0.2706,0.2756,0.2807,0.2845,0.2907,0.2955,0.2979,0.2987,0.3042,0.3034,0.3032,0.3036,0.3066,0.3067,0.3067,0.306,0.306,0.306,0,0,0.2384,0.2424,0.2455,0.2495,0.2555,0.2595,0.2602,0.2671,0.2697,0.2749,0.2788,0.2827,0.2907,0.295,0.2982,0.2999,0.3027,0.3013,0.3003,0.3031,0.3032,0.3032,0.304,0.3042,0.3016,0.3015,0.3015,0,0.2362,0.2422,0.2469,0.2508,0.254,0.2585,0.2619,0.2656,0.273,0.2752,0.2759,0.2862,0.2906,0.2967,0.2971,0.2995,0.3008,0.3005,0.3027,0.3029,0.303,0.3038,0.3041,0.3013,0.3014,0.3014,0.3014,0,0.2393,0.2434,0.2452,0.2521,0.2555,0.2591,0.2646,0.2676,0.2705,0.2744,0.2798,0.2853,0.2914,0.293,0.2959,0.2996,0.2999,0.3016,0.3028,0.3028,0.3037,0.304,0.3011,0.3011,0.3012,0.3012,0,0,0.2362,0.2456,0.2463,0.2495,0.2566,0.26,0.264,0.2697,0.2723,0.2772,0.2809,0.2876,0.2893,0.293,0.2964,0.2988,0.3001,0.3003,0.3006,0.3002,0.3048,0.3035,0.3038,0.302,0.302,0.3021,0.3043,0,0.2371,0.2442,0.2487,0.2541,0.2581,0.2626,0.2661,0.271,0.2748,0.279,0.2833,0.2881,0.2898,0.292,0.2946,0.2994,0.3011,0.2993,0.3057,0.3059,0.3041,0.3042,0.3029,0.3047,0.3047,0.3047,0.3048,0,0.2392,0.2439,0.2497,0.2565,0.2583,0.2614,0.2672,0.271,0.2767,0.2794,0.2835,0.287,0.2917,0.2925,0.2992,0.2979,0.3008,0.3035,0.3037,0.3046,0.3054,0.3053,0.3054,0.3057,0.3053,0.3053,0.3052,0,0.2366,0.2444,0.249,0.2516,0.2596,0.2616,0.2651,0.2708,0.2741,0.2792,0.2814,0.2871,0.2902,0.2946,0.2997,0.2998,0.306,0.3072,0.3086,0.3084,0.3098,0.3096,0.3104,0.3114,0.3114,0.3114,0.3113,0,0.2372,0.2407,0.2479,0.2507,0.2548,0.26,0.2639,0.2678,0.2729,0.2767,0.281,0.2845,0.2909,0.2954,0.2994,0.3045,0.3059,0.3083,0.3094,0.308,0.3077,0.3101,0.3102,0.3114,0.3114,0.3114,0.3114,0,0.2351,0.24,0.2453,0.2524,0.2543,0.257,0.2633,0.2663,0.2704,0.2752,0.2767,0.2831,0.2886,0.2941,0.3015,0.3042,0.3093,0.3106,0.3073,0.3079,0.309,0.3089,0.3115,0.3123,0.3125,0.3125,0.3125,0,0.2352,0.2379,0.2454,0.2481,0.2515,0.2559,0.2593,0.2646,0.2679,0.2747,0.277,0.2828,0.2877,0.2962,0.3018,0.3075,0.3092,0.3097,0.3101,0.3087,0.3094,0.3092,0.3097,0.3096,0.3095,0.3095,0.3095,0,0.235,0.2374,0.2419,0.2473,0.2512,0.2558,0.2605,0.2627,0.269,0.2726,0.2781,0.2819,0.2894,0.2952,0.3016,0.3055,0.3087,0.3093,0.31,0.3087,0.3067,0.308,0.307,0.3092,0.3093,0.3093,0.3093,0.3093,0.2342,0.2369,0.2425,0.2475,0.2517,0.2561,0.2593,0.2638,0.2684,0.2749,0.2778,0.2834,0.2894,0.2983,0.3022,0.3069,0.3077,0.3086,0.3089,0.309,0.3088,0.3058,0.308,0.3081,0.3081,0.3081,0.3081,0,0.2344,0.2382,0.2428,0.2493,0.2533,0.2556,0.2611,0.2644,0.2692,0.2744,0.2791,0.2856,0.2913,0.2973,0.3033,0.306,0.3076,0.3074,0.3073,0.3082,0.3076,0.3065,0.306,0.306,0.306,0.306,0.306,0.306,0.2349,0.2397,0.2428,0.2498,0.2537,0.2591,0.2621,0.2663,0.2704,0.2775,0.2821,0.2859,0.2915,0.2981,0.3035,0.3051,0.3073,0.3067,0.3088,0.3081,0.3083,0.3084,0.3074,0.3071,0.3071,0.309,0.309,0.3091]},{"header":{"parameterUnit":"m.s-1","parameterCategory":1,"la1":30.2991,"la2":30.254,"lo1":-89.0895,"lo2":-89.0444,"dy":0.0017,"dx":0.0017,"nx":28,"ny":28,"refTime":"2025-12-11T09:00:00:Z","depth":0,"parameterNumber":3,"parameterNumberName":"V-component_of_WINDS"},"data":[0,0,0,0,0,0,0,0,0,0,0,0,0,0,0,0,0,0,0,0,0,0,0,0,0,0,0,0,0,0,0,0,0,0,0,0,0,0,0,0,0,0,0,0,0,0,0,0,0,0,0,0,0,0,0,0,0,0,1.1006,1.1005,0,1.0915,1.0914,1.0913,1.0914,1.0915,1.0916,1.0917,1.0827,1.0824,1.082,0,0,0,0,0,0,0,0,0,0,0,0,0,1.1185,1.1182,1.1006,1.1005,1.1004,1.0915,1.0914,1.0913,1.0913,1.0915,1.0916,1.0918,1.0828,1.0824,1.082,0,0,0,0,0,0,0,0,0,0,0,0,0,1.1102,1.1181,1.1007,1.0993,1.0991,1.0916,1.0914,1.0913,1.0913,1.0915,1.0917,1.0918,1.083,1.0825,1.0819,1.0752,0,0,1.0803,1.0801,0,0,0,0,0,0,0,0,1.1107,1.1096,1.0997,1.0994,1.0992,1.0927,1.0944,1.0859,1.0913,1.0943,1.0917,1.0919,1.0859,1.0852,1.0831,1.0748,1.0744,1.0803,1.08,1.0798,1.0796,0,0,0,0,0,0,0,1.1113,1.11,1.097,1.0995,1.0992,1.0994,1.0984,1.0928,1.0892,1.094,1.094,1.0929,1.0858,1.0836,1.0829,1.0742,1.0803,1.0798,1.0795,1.0793,1.0601,1.0599,0,0,0,0,0,0,1.112,1.1104,1.0973,1.0968,1.1055,1.0989,1.0978,1.0946,1.0893,1.0886,1.0928,1.093,1.0844,1.0835,1.0826,1.0744,1.0798,1.0793,1.079,1.0603,1.06,1.0598,0,0,0,0,0,0,1.1124,1.1109,1.0977,1.1036,1.1019,1.0984,1.0949,1.0944,1.0921,1.0883,1.0878,1.0911,1.0845,1.0833,1.077,1.0741,1.079,1.0786,1.0605,1.0602,1.0599,1.0579,0,0,0,0,0,0,1.1129,1.111,1.1083,1.1035,1.1016,1.0921,1.0947,1.0941,1.0912,1.0913,1.0866,1.086,1.0846,1.0778,1.0765,1.0734,1.0782,1.0608,1.0604,1.06,1.0582,1.0575,1.057,0,0,0,0,0,1.1136,1.1081,1.1081,1.1066,1.0981,1.092,1.0909,1.0892,1.0909,1.0882,1.0858,1.0862,1.0746,1.0772,1.0757,1.0724,1.0609,1.0605,1.06,1.0584,1.0577,1.057,0,0,0,0,0,0,1.1127,1.1075,1.1074,1.1002,1.0965,1.092,1.0885,1.0884,1.0843,1.0846,1.0828,1.0818,1.0755,1.0733,1.0763,1.0657,1.068,1.0672,1.0673,1.0665,1.0659,1.0666,1.0777,0,0,0,0,0,1.1117,1.107,1.1027,1.0968,1.0949,1.092,1.0893,1.0884,1.0845,1.083,1.0801,1.0765,1.0721,1.0692,1.0649,1.0579,1.057,1.0549,1.0543,1.0539,1.0532,1.0495,1.0486,1.0584,1.0584,1.0584,0,0,1.1095,1.106,1.1032,1.0965,1.0935,1.0889,1.0907,1.0857,1.0823,1.0823,1.0761,1.0739,1.0698,1.0632,1.0601,1.0612,1.0503,1.0533,1.0529,1.0526,1.049,1.0481,1.0472,1.0581,1.0581,1.0582,0,0,1.1031,1.1,1.0947,1.0917,1.0872,1.0853,1.0841,1.0795,1.0781,1.0719,1.0718,1.0678,1.0601,1.0572,1.0547,1.0474,1.0476,1.0461,1.043,1.0394,1.0386,1.0379,1.0354,1.0345,1.0455,1.0455,1.0455,0,1.101,1.0938,1.0921,1.087,1.0842,1.0839,1.0786,1.0759,1.0702,1.0683,1.0696,1.06,1.0572,1.05,1.0482,1.0462,1.0448,1.0466,1.0388,1.0381,1.0375,1.035,1.0341,1.0453,1.0454,1.0454,1.0454,0,1.0915,1.0866,1.0829,1.0773,1.0741,1.069,1.0666,1.0636,1.0629,1.061,1.0548,1.0515,1.0465,1.0447,1.0441,1.0374,1.0382,1.0392,1.0415,1.0364,1.0341,1.0332,1.0451,1.0452,1.0452,1.0453,0,0,1.0842,1.0778,1.0765,1.074,1.0691,1.0653,1.0603,1.0554,1.0528,1.049,1.0448,1.0384,1.0393,1.0365,1.0356,1.0324,1.027,1.0338,1.0337,1.0327,1.0196,1.0189,1.0178,1.0271,1.0269,1.0268,1.0199,0,1.0774,1.0683,1.0666,1.0588,1.0543,1.054,1.0497,1.0462,1.0444,1.0404,1.0384,1.0339,1.0353,1.0337,1.0305,1.0283,1.0243,1.0288,1.0233,1.0232,1.0244,1.0166,1.0158,1.0096,1.019,1.0189,1.0188,0,1.0681,1.0639,1.0556,1.0513,1.0494,1.0455,1.0409,1.0371,1.0333,1.0322,1.0291,1.0286,1.0235,1.0261,1.0192,1.0223,1.02,1.0186,1.0183,1.0177,1.0206,1.0159,1.0075,1.0066,1.0173,1.0174,1.0175,0,1.0637,1.056,1.0501,1.048,1.0428,1.0401,1.0379,1.0342,1.0314,1.0275,1.0257,1.0213,1.0189,1.0156,1.014,1.0159,1.0072,1.0096,1.0063,1.0063,1.0044,1.0046,0.9956,1.0029,1.0029,1.003,1.003,0,1.0562,1.0511,1.048,1.0444,1.0387,1.037,1.0315,1.0294,1.0262,1.0222,1.0218,1.0181,1.0162,1.0123,1.011,1.0056,1.0045,1.0036,1.0033,1.0036,1.0037,1.0021,1.0025,1.0027,1.0028,1.0028,1.0029,0,1.0503,1.048,1.0415,1.0372,1.036,1.0321,1.0285,1.025,1.0232,1.0182,1.0169,1.0141,1.0095,1.0075,1.0019,1.0011,0.9949,0.9949,0.9961,0.996,0.9928,0.9931,0.9824,0.981,0.9893,0.9892,0.9891,0,1.0457,1.0418,1.037,1.0343,1.032,1.0276,1.0247,1.0229,1.02,1.0154,1.0125,1.0079,1.0041,0.9968,0.9944,0.9901,0.9901,0.9866,0.9894,0.9899,0.9901,0.9903,0.99,0.9861,0.986,0.986,0.9859,0,1.0378,1.0368,1.0326,1.028,1.0246,1.0209,1.0174,1.0152,1.0129,1.0097,1.0049,1.002,0.9962,0.9917,0.9873,0.9852,0.9852,0.985,0.9841,0.9843,0.9852,0.9848,0.9947,0.9853,0.9854,0.9854,0.9854,0.9855,1.0324,1.0289,1.0251,1.0204,1.0176,1.0143,1.0108,1.0086,1.0045,0.9996,0.9989,0.9938,0.9903,0.9844,0.9821,0.9783,0.9792,0.9777,0.9774,0.977,0.9768,0.9858,0.9775,0.9775,0.9775,0.9775,0.9775,0,1.0245,1.022,1.0177,1.0127,1.0092,1.0094,1.0055,1.0025,0.998,0.9947,0.991,0.9856,0.9812,0.9785,0.9741,0.9716,0.9715,0.9705,0.9707,0.9702,0.9763,0.9776,0.9707,0.9707,0.9707,0.9707,0.9707,0.9707,1.0199,1.0141,1.0128,1.0056,1.0032,0.9981,0.9959,0.993,0.9903,0.9842,0.9806,0.9788,0.9757,0.9712,0.9672,0.9666,0.965,0.964,0.9634,0.9691,0.9698,0.9705,0.9717,0.9636,0.9636,0.9577,0.9576,0.9576]}]]